• En España
  • Lista de países
  • Para 7 días
  • Temperatura del agua
  • Mapa Satelital
  • El tiempo en el mapa
  • Informadores
  • user-avatar
    Iniciar sesión

    Tiempo cada hora Sidi Bu-l-Abbas

    Hoy, 19 Junio, Martes

    Tiempo Temperatura Precipitaciones Viento Presión Humedad
    00:00 +26°C° 0 mm 2 mps 722 mmHg 41%
    01:00 +25°C° 0 mm 2 mps 722 mmHg 45%
    02:00 +24°C° 0 mm 2 mps 722 mmHg 48%
    03:00 +24°C° 0 mm 2 mps 721 mmHg 51%
    04:00 +24°C° 0 mm 2 mps 722 mmHg 52%
    05:00 +23°C° 0 mm 2 mps 722 mmHg 53%
    06:00 +23°C° 0 mm 2 mps 722 mmHg 54%
    07:00 +25°C° 0 mm 2 mps 723 mmHg 49%
    08:00 +26°C° 0 mm 3 mps 723 mmHg 43%
    09:00 +27°C° 0 mm 4 mps 723 mmHg 38%
    10:00 +28°C° 0 mm 4 mps 723 mmHg 36%
    11:00 +29°C° 0 mm 5 mps 723 mmHg 33%
    12:00 +30°C° 0 mm 6 mps 723 mmHg 30%
    13:00 +30°C° 0 mm 6 mps 722 mmHg 31%
    14:00 +30°C° 0 mm 6 mps 722 mmHg 31%
    15:00 +32°C° 0 mm 6 mps 722 mmHg 32%
    16:00 +30°C° 0 mm 6 mps 722 mmHg 35%
    17:00 +29°C° 0 mm 5 mps 722 mmHg 39%
    18:00 +28°C° 0 mm 5 mps 721 mmHg 43%
    19:00 +27°C° 0 mm 4 mps 722 mmHg 49%
    20:00 +26°C° 0 mm 3 mps 722 mmHg 55%
    21:00 +24°C° 0 mm 3 mps 722 mmHg 61%
    22:00 +24°C° 0 mm 2 mps 722 mmHg 64%
    23:00 +23°C° 0 mm 2 mps 722 mmHg 67%

    Mañana, 20 Junio, Miércoles

    Tiempo Temperatura Precipitaciones Viento Presión Humedad
    00:00 +23°C° 0 mm 1 mps 722 mmHg 70%
    01:00 +23°C° 0 mm 1 mps 722 mmHg 73%
    02:00 +22°C° 0 mm 1 mps 721 mmHg 75%
    03:00 +22°C° 0 mm 1 mps 721 mmHg 78%
    04:00 +22°C° 0 mm 1 mps 721 mmHg 76%
    05:00 +22°C° 0 mm 1 mps 721 mmHg 74%
    06:00 +22°C° 0 mm 1 mps 721 mmHg 72%
    07:00 +24°C° 0 mm 1 mps 721 mmHg 65%
    08:00 +25°C° 0 mm 1 mps 722 mmHg 57%
    09:00 +27°C° 0 mm 2 mps 722 mmHg 49%
    10:00 +28°C° 0 mm 2 mps 722 mmHg 44%
    11:00 +30°C° 0 mm 2 mps 722 mmHg 40%
    12:00 +31°C° 0 mm 3 mps 721 mmHg 35%
    13:00 +33°C° 0 mm 4 mps 721 mmHg 35%
    14:00 +33°C° 0 mm 4 mps 721 mmHg 34%
    15:00 +34°C° 0 mm 5 mps 720 mmHg 34%
    16:00 +33°C° 0 mm 5 mps 720 mmHg 37%
    17:00 +32°C° 0 mm 5 mps 720 mmHg 40%
    18:00 +30°C° 0 mm 5 mps 720 mmHg 43%
    19:00 +29°C° 0 mm 5 mps 720 mmHg 46%
    20:00 +28°C° 0 mm 4 mps 720 mmHg 50%
    21:00 +27°C° 0 mm 3 mps 721 mmHg 53%
    22:00 +26°C° 0 mm 3 mps 720 mmHg 55%
    23:00 +26°C° 0 mm 2 mps 720 mmHg 56%

    Pasado mañana, 21 Junio, Jueves

    Tiempo Temperatura Precipitaciones Viento Presión Humedad
    00:00 +26°C° 0 mm 2 mps 720 mmHg 58%
    01:00 +25°C° 0 mm 2 mps 720 mmHg 60%
    02:00 +25°C° 0 mm 2 mps 720 mmHg 62%
    03:00 +24°C° 0 mm 1 mps 719 mmHg 63%
    04:00 +24°C° 0 mm 1 mps 720 mmHg 64%
    05:00 +24°C° 0 mm 1 mps 720 mmHg 65%
    06:00 +24°C° 0 mm 1 mps 720 mmHg 66%
    07:00 +25°C° 0 mm 2 mps 720 mmHg 60%
    08:00 +27°C° 0 mm 2 mps 720 mmHg 53%
    09:00 +28°C° 0 mm 2 mps 720 mmHg 46%
    10:00 +30°C° 0 mm 3 mps 720 mmHg 42%
    11:00 +31°C° 0 mm 3 mps 720 mmHg 37%
    12:00 +34°C° 0 mm 4 mps 721 mmHg 33%
    13:00 +34°C° 0 mm 4 mps 720 mmHg 33%
    14:00 +34°C° 0 mm 5 mps 720 mmHg 33%
    15:00 +35°C° 0 mm 6 mps 720 mmHg 33%
    16:00 +34°C° 0 mm 5 mps 719 mmHg 35%
    17:00 +33°C° 0 mm 5 mps 719 mmHg 38%
    18:00 +32°C° 0 mm 4 mps 719 mmHg 40%
    19:00 +30°C° 0 mm 4 mps 719 mmHg 44%
    20:00 +29°C° 0 mm 3 mps 719 mmHg 48%
    21:00 +27°C° 0 mm 3 mps 720 mmHg 51%
    22:00 +27°C° 0 mm 2 mps 720 mmHg 53%
    23:00 +27°C° 0 mm 2 mps 720 mmHg 55%

    22 Junio, Viernes

    Tiempo Temperatura Precipitaciones Viento Presión Humedad
    00:00 +26°C° 0 mm 2 mps 719 mmHg 56%
    01:00 +26°C° 0 mm 2 mps 719 mmHg 59%
    02:00 +25°C° 0 mm 2 mps 719 mmHg 62%
    03:00 +25°C° 0 mm 2 mps 719 mmHg 65%
    04:00 +25°C° 0 mm 2 mps 719 mmHg 65%
    05:00 +25°C° 0 mm 2 mps 719 mmHg 66%
    06:00 +25°C° 0 mm 1 mps 719 mmHg 67%
    07:00 +26°C° 0 mm 2 mps 719 mmHg 59%
    08:00 +28°C° 0 mm 2 mps 719 mmHg 52%
    09:00 +29°C° 0 mm 2 mps 720 mmHg 45%
    10:00 +31°C° 0 mm 3 mps 719 mmHg 42%
    11:00 +33°C° 0 mm 3 mps 719 mmHg 38%
    12:00 +35°C° 0 mm 4 mps 719 mmHg 35%
    13:00 +35°C° 0 mm 4 mps 719 mmHg 35%
    14:00 +35°C° 0 mm 4 mps 718 mmHg 36%
    15:00 +35°C° 0 mm 5 mps 718 mmHg 36%
    16:00 +34°C° 0 mm 4 mps 718 mmHg 37%
    17:00 +33°C° 0 mm 4 mps 718 mmHg 38%
    18:00 +33°C° 0 mm 4 mps 717 mmHg 40%
    19:00 +31°C° 0 mm 3 mps 718 mmHg 44%
    20:00 +29°C° 0 mm 3 mps 718 mmHg 47%
    21:00 +28°C° 0 mm 2 mps 718 mmHg 51%
    22:00 +28°C° 0 mm 2 mps 718 mmHg 54%
    23:00 +27°C° 0 mm 2 mps 718 mmHg 56%

    23 Junio, Sábado

    Tiempo Temperatura Precipitaciones Viento Presión Humedad
    00:00 +26°C° 0 mm 2 mps 718 mmHg 58%
    01:00 +26°C° 0 mm 2 mps 718 mmHg 61%
    02:00 +25°C° 0 mm 2 mps 718 mmHg 63%
    03:00 +25°C° 0 mm 1 mps 717 mmHg 66%
    04:00 +25°C° 0 mm 1 mps 718 mmHg 66%
    05:00 +25°C° 0 mm 1 mps 718 mmHg 65%
    06:00 +25°C° 0 mm 1 mps 718 mmHg 64%
    07:00 +27°C° 0 mm 1 mps 718 mmHg 56%
    08:00 +29°C° 0 mm 2 mps 718 mmHg 47%
    09:00 +31°C° 0 mm 3 mps 719 mmHg 39%
    10:00 +34°C° 0 mm 3 mps 718 mmHg 36%
    11:00 +35°C° 0 mm 4 mps 718 mmHg 34%
    12:00 +36°C° 0 mm 5 mps 718 mmHg 32%
    13:00 +36°C° 0 mm 5 mps 718 mmHg 33%
    14:00 +36°C° 0 mm 5 mps 717 mmHg 35%
    15:00 +36°C° 0 mm 5 mps 717 mmHg 36%
    16:00 +35°C° 0 mm 4 mps 717 mmHg 39%
    17:00 +33°C° 0 mm 4 mps 717 mmHg 42%
    18:00 +32°C° 0 mm 4 mps 716 mmHg 46%
    19:00 +30°C° 0 mm 3 mps 717 mmHg 50%
    20:00 +29°C° 0 mm 2 mps 717 mmHg 55%
    21:00 +27°C° 0 mm 2 mps 717 mmHg 60%
    22:00 +27°C° 0 mm 2 mps 717 mmHg 63%
    23:00 +26°C° 0 mm 2 mps 717 mmHg 66%

    24 Junio, Domingo

    Tiempo Temperatura Precipitaciones Viento Presión Humedad
    00:00 +25°C° 0 mm 2 mps 717 mmHg 69%
    01:00 +25°C° 0 mm 2 mps 717 mmHg 71%
    02:00 +24°C° 0 mm 2 mps 717 mmHg 74%
    03:00 +24°C° 0 mm 2 mps 716 mmHg 76%
    04:00 +24°C° 0 mm 2 mps 717 mmHg 76%
    05:00 +24°C° 0 mm 2 mps 717 mmHg 75%
    06:00 +24°C° 0 mm 3 mps 717 mmHg 75%
    07:00 +25°C° 0 mm 3 mps 717 mmHg 69%
    08:00 +26°C° 0 mm 3 mps 718 mmHg 64%
    09:00 +27°C° 0 mm 4 mps 718 mmHg 58%
    10:00 +28°C° 0 mm 4 mps 718 mmHg 55%
    11:00 +29°C° 0 mm 5 mps 718 mmHg 52%
    12:00 +30°C° 0 mm 6 mps 718 mmHg 48%
    13:00 +30°C° 0 mm 6 mps 718 mmHg 49%
    14:00 +30°C° 0 mm 6 mps 718 mmHg 49%
    15:00 +30°C° 0 mm 6 mps 718 mmHg 50%
    16:00 +29°C° 0 mm 6 mps 718 mmHg 54%
    17:00 +28°C° 0 mm 6 mps 718 mmHg 58%
    18:00 +27°C° 0 mm 5 mps 718 mmHg 63%
    19:00 +26°C° 0 mm 5 mps 719 mmHg 67%
    20:00 +25°C° 0 mm 4 mps 719 mmHg 71%
    21:00 +24°C° 0 mm 3 mps 720 mmHg 75%
    22:00 +22°C° 0 mm 3 mps 720 mmHg 75%
    23:00 +23°C° 0 mm 2 mps 720 mmHg 76%
    Mostrar más